Location: Oakhurst
(33.6448°N, 111.9543°W)
Time: 17:02:45
(UTC+00:00)

QB50P2 - Pass Details

Date: 31 July 2021
Orbit: 593 x 608 km, 97.9° (Epoch: 19 September)

Event Time Altitude Azimuth Distance (km) Brightness Sun altitude
Rises 08:35:05 0° 8° (N) 2,856 ? -36.2°
Reaches altitude 10° 08:37:16 10° 6° (N) 1,951 ? -36.1°
Enters shadow 08:38:10 16° 4° (N) 1,587 ? -36.0°
